Radiance Of The Seas — C6SE7 — position and weather

sailwx.info

Track history (hours):
 
Tides and Currents Weather Stations Pressure Air Temp Water Temp Dewpoint Dewpoint Depression Visibility Wind Speed Wind Dir Waves Ship Positions

Radiance Of The Seas

Operator: Royal Caribbean Cruises Ltd

Last reported at 2018-Jan-23 23:00 UTC. Time now 2018-Jan-24 01:54 UTC.
Position S 45°12' E 166°54'.

Type: Passenger vessel. MMSI: 311319000.

Wind from 010 at 25 knots

Barometer 1012.0 mb
Air temperature 19.0 ° C
Visibility: greater than 2.2 NM
Dewpoint 19.0 ° C
Water temperature 20.0 ° C

Date/timePositionNaut miles runAvg speedWind from/ knotsBaromVisibWave heightAir tempDewpointWater temp
2018-Jan-23 23:00S 45°12' E 166°54'11010.9 010 / 251012.0 2.2 19.019.020.0
2018-Jan-23 12:55S 46°42' E 168°24'818.5
2018-Jan-23 12:31S 46°42' E 168°35'918.1
2018-Jan-23 12:00S 46°43' E 168°48'918.1
2018-Jan-23 11:30S 46°47' E 169°00'917.5
2018-Jan-23 11:01S 46°46' E 169°13'917.2
2018-Jan-23 10:31S 46°44' E 169°25'917.4
2018-Jan-23 10:01S 46°43' E 169°38'917.3
2018-Jan-23 09:31S 46°41' E 169°50'816.8
2018-Jan-23 09:01S 46°39' E 170°02'917.4
2018-Jan-23 08:31S 46°32' E 170°10'917.3
2018-Jan-23 08:00S 46°25' E 170°18'917.5
2018-Jan-23 07:31S 46°19' E 170°26'917.7
2018-Jan-23 07:00S 46°12' E 170°34'917.9
2018-Jan-23 06:31S 46°04' E 170°41'917.8
2018-Jan-23 06:00S 45°57' E 170°47'1017.1
2018-Jan-23 05:26S 45°47' E 170°49'6 7.1
2018-Jan-23 04:35S 45°48' E 170°41'3 5.5
2018-Jan-23 04:00S 45°48' E 170°36'5 0.4 1007.010.8 21.019.522.0
2018-Jan-22 16:57S 45°48' E 170°43'13914.0
2018-Jan-22 07:00S 44°00' E 172°48'7 0.5 100 / 121011.0 5.4 18.0
2018-Jan-21 17:00S 43°54' E 172°54'13913.9 080 / 51012.0 5.4 16.014.419.0
2018-Jan-21 07:00S 41°54' E 174°30'267 8.1 060 / 141016.0 0.5 17.6
2018-Jan-19 22:00S 38°36' E 178°24'108 9.0 010 / 141019.010.8 19.0 19.0
2018-Jan-19 10:00S 37°24' E 176°42'2039.8 020 / 171019.0 5.4 20.018.521.0
2018-Jan-19 09:30S 37°30' E 176°18'714.2
2018-Jan-19 09:00S 37°35' E 176°12'4 8.5
2018-Jan-19 08:30S 37°39' E 176°11'0 0.3
2018-Jan-19 07:56S 37°39' E 176°11'0 0.0
2018-Jan-19 07:29S 37°39' E 176°11'0 0.0
2018-Jan-19 06:59S 37°39' E 176°11'0 0.0
2018-Jan-19 06:29S 37°39' E 176°11'0 0.0
2018-Jan-19 05:59S 37°39' E 176°11'0 0.0
2018-Jan-19 05:29S 37°39' E 176°11'0 0.0
2018-Jan-19 04:59S 37°39' E 176°11'0 0.0
2018-Jan-19 04:29S 37°39' E 176°11'0 0.0
2018-Jan-19 03:59S 37°39' E 176°11'0 0.0
2018-Jan-19 03:29S 37°39' E 176°11'0 0.0
2018-Jan-19 02:59S 37°39' E 176°11'0 0.0
2018-Jan-19 02:26S 37°39' E 176°11'0 0.0
2018-Jan-19 01:56S 37°39' E 176°11'0 0.0
2018-Jan-19 01:26S 37°39' E 176°11'0 0.0
2018-Jan-19 00:59S 37°39' E 176°11'0 0.0
2018-Jan-19 00:29S 37°39' E 176°11'0 0.0
2018-Jan-18 23:59S 37°39' E 176°11'0 0.0
2018-Jan-18 23:29S 37°39' E 176°11'0 0.0
2018-Jan-18 22:59S 37°39' E 176°11'0 0.0
2018-Jan-18 22:29S 37°39' E 176°11'0 0.0
2018-Jan-18 21:59S 37°39' E 176°11'0 0.0
2018-Jan-18 21:29S 37°39' E 176°11'0 0.0
2018-Jan-18 21:00S 37°39' E 176°11'2 4.8
2018-Jan-18 20:30S 37°36' E 176°11'4 7.8
2018-Jan-18 20:00S 37°32' E 176°12'2156.0
2018-Jan-18 20:00S 37°30' E 176°12'2 3.0 010 / 81017.0 5.4 21.019.522.0
2018-Jan-18 19:29S 37°29' E 176°12'92 7.6
2018-Jan-18 07:23S 35°59' E 175°46'14 9.9
2018-Jan-18 06:00S 35°48' E 175°36'3 3.9 360 / 221015.0 5.4 21.018.021.0
2018-Jan-18 05:14S 35°47' E 175°33'20 8.9
2018-Jan-18 03:00S 35°36' E 175°12'53 8.9 010 / 261015.0 5.4 20.0 20.0
2018-Jan-17 21:00S 35°00' E 174°24'173 4.6 010 / 281014.0 2.2 20.016.923.0
2018-Jan-16 07:00S 37°30' E 176°12'   040 / 351020.010.8 24.022.626.0
Track history (hours):
 
Tides and Currents Weather Stations Pressure Air Temp Water Temp Dewpoint Dewpoint Depression Visibility Wind Speed Wind Dir Waves Ship Positions

Radiance Of The Seas

Operator: Royal Caribbean Cruises Ltd

Last reported at 2018-Jan-23 23:00 UTC. Time now 2018-Jan-24 01:54 UTC.
Position S 45°12' E 166°54'.

Type: Passenger vessel. MMSI: 311319000.

Wind from 010 at 25 knots

Barometer 1012.0 mb
Air temperature 19.0 ° C
Visibility: greater than 2.2 NM
Dewpoint 19.0 ° C
Water temperature 20.0 ° C

Date/timePositionNaut miles runAvg speedWind from/ knotsBaromVisibWave heightAir tempDewpointWater temp
2018-Jan-23 23:00S 45°12' E 166°54'11010.9 010 / 251012.0 2.2 19.019.020.0
2018-Jan-23 12:55S 46°42' E 168°24'818.5
2018-Jan-23 12:31S 46°42' E 168°35'918.1
2018-Jan-23 12:00S 46°43' E 168°48'918.1
2018-Jan-23 11:30S 46°47' E 169°00'917.5
2018-Jan-23 11:01S 46°46' E 169°13'917.2
2018-Jan-23 10:31S 46°44' E 169°25'917.4
2018-Jan-23 10:01S 46°43' E 169°38'917.3
2018-Jan-23 09:31S 46°41' E 169°50'816.8
2018-Jan-23 09:01S 46°39' E 170°02'917.4
2018-Jan-23 08:31S 46°32' E 170°10'917.3
2018-Jan-23 08:00S 46°25' E 170°18'917.5
2018-Jan-23 07:31S 46°19' E 170°26'917.7
2018-Jan-23 07:00S 46°12' E 170°34'917.9
2018-Jan-23 06:31S 46°04' E 170°41'917.8
2018-Jan-23 06:00S 45°57' E 170°47'1017.1
2018-Jan-23 05:26S 45°47' E 170°49'6 7.1
2018-Jan-23 04:35S 45°48' E 170°41'3 5.5
2018-Jan-23 04:00S 45°48' E 170°36'5 0.4 1007.010.8 21.019.522.0
2018-Jan-22 16:57S 45°48' E 170°43'13914.0
2018-Jan-22 07:00S 44°00' E 172°48'7 0.5 100 / 121011.0 5.4 18.0
2018-Jan-21 17:00S 43°54' E 172°54'13913.9 080 / 51012.0 5.4 16.014.419.0
2018-Jan-21 07:00S 41°54' E 174°30'267 8.1 060 / 141016.0 0.5 17.6
2018-Jan-19 22:00S 38°36' E 178°24'108 9.0 010 / 141019.010.8 19.0 19.0
2018-Jan-19 10:00S 37°24' E 176°42'2039.8 020 / 171019.0 5.4 20.018.521.0
2018-Jan-19 09:30S 37°30' E 176°18'714.2
2018-Jan-19 09:00S 37°35' E 176°12'4 8.5
2018-Jan-19 08:30S 37°39' E 176°11'0 0.3
2018-Jan-19 07:56S 37°39' E 176°11'0 0.0
2018-Jan-19 07:29S 37°39' E 176°11'0 0.0
2018-Jan-19 06:59S 37°39' E 176°11'0 0.0
2018-Jan-19 06:29S 37°39' E 176°11'0 0.0
2018-Jan-19 05:59S 37°39' E 176°11'0 0.0
2018-Jan-19 05:29S 37°39' E 176°11'0 0.0
2018-Jan-19 04:59S 37°39' E 176°11'0 0.0
2018-Jan-19 04:29S 37°39' E 176°11'0 0.0
2018-Jan-19 03:59S 37°39' E 176°11'0 0.0
2018-Jan-19 03:29S 37°39' E 176°11'0 0.0
2018-Jan-19 02:59S 37°39' E 176°11'0 0.0
2018-Jan-19 02:26S 37°39' E 176°11'0 0.0
2018-Jan-19 01:56S 37°39' E 176°11'0 0.0
2018-Jan-19 01:26S 37°39' E 176°11'0 0.0
2018-Jan-19 00:59S 37°39' E 176°11'0 0.0
2018-Jan-19 00:29S 37°39' E 176°11'0 0.0
2018-Jan-18 23:59S 37°39' E 176°11'0 0.0
2018-Jan-18 23:29S 37°39' E 176°11'0 0.0
2018-Jan-18 22:59S 37°39' E 176°11'0 0.0
2018-Jan-18 22:29S 37°39' E 176°11'0 0.0
2018-Jan-18 21:59S 37°39' E 176°11'0 0.0
2018-Jan-18 21:29S 37°39' E 176°11'0 0.0
2018-Jan-18 21:00S 37°39' E 176°11'2 4.8
2018-Jan-18 20:30S 37°36' E 176°11'4 7.8
2018-Jan-18 20:00S 37°32' E 176°12'2156.0
2018-Jan-18 20:00S 37°30' E 176°12'2 3.0 010 / 81017.0 5.4 21.019.522.0
2018-Jan-18 19:29S 37°29' E 176°12'92 7.6
2018-Jan-18 07:23S 35°59' E 175°46'14 9.9
2018-Jan-18 06:00S 35°48' E 175°36'3 3.9 360 / 221015.0 5.4 21.018.021.0
2018-Jan-18 05:14S 35°47' E 175°33'20 8.9
2018-Jan-18 03:00S 35°36' E 175°12'53 8.9 010 / 261015.0 5.4 20.0 20.0
2018-Jan-17 21:00S 35°00' E 174°24'173 4.6 010 / 281014.0 2.2 20.016.923.0
2018-Jan-16 07:00S 37°30' E 176°12'   040 / 351020.010.8 24.022.626.0

Dump ship's entire track history